* Astronomy

Members Login
Username 
 
Password 
    Remember Me  
Post Info TOPIC: Asteroid 2012 BU61


L

Posts: 131433
Date:
RE: Asteroid 2012 BU61
Permalink  
 


Orbital elements:
2012 BU61                                           PHA, Earth MOID = 0.0274 AU
Epoch 2016 Jan. 13.0 TT = JDT 2457400.5                 MPC
M  13.40951              (2000.0)            P               Q
n   0.24671261     Peri.   72.46029     +0.98073999     -0.17753428
a   2.5177261      Node   297.70005     +0.12524113     +0.89152438
e   0.7802278      Incl.    5.27690     +0.14987906     +0.41673235
P   3.99           H   21.5           G   0.15           U   2

MPEC 2016 - A60



__________________


L

Posts: 131433
Date:
Permalink  
 

Orbital elements:
2012 BU61                                           PHA, Earth MOID = 0.0242 AU
Epoch 2012 Mar. 14.0 TT = JDT 2456000.5                 MPC
M  32.96879              (2000.0)            P               Q
n   0.29822779     Peri.   68.43673     +0.99009491     -0.11681966
a   2.2187275      Node   298.19876     +0.07174950     +0.89779400
e   0.7672097      Incl.    5.06971     +0.12068171     +0.42463998
P   3.30           H   21.1           G   0.15           U   8

MPEC 2012 - B70



__________________
Page 1 of 1  sorted by
 
Quick Reply

Please log in to post quick replies.



Create your own FREE Forum
Report Abuse
Powered by ActiveBoard